Showing default

MT-CUBE-2, 53106

Orbit data source: Space-Track

MT-CUBE-2, 53106 is a French payload satellite that was launched on Wed, 13 Jul 2022 UTC via a VEGA C launch vehicle from the French Guiana (FRGUI). Payload-class satellites include a variety of spacecraft equipped with specific instruments for various scientific and technological missions. These include communications satellites like Starlink; space stations such as the ISS; scientific satellites like the Hubble; Earth observation satellites from companies like Planet Labs, Umbra, and HawkEye 360; GPS; miniature CubeSats for education and research; and military/defense satellites.

Loading next visibility...
Identifier
53106, 2022-080B
Orbit
Active
Country
Flag of FRFR
Related business
Manufacturer
ENEA/UNF2
Mission
Non-operational Civil Science
Bus & Motor
CUBESAT 3U, Unknown motor
Mass
4 kg wet, 4 kg dry
Launch date (UTC)
2022-07-13 (3 years ago)
Launch vehicle
VEGA C
Launch site
French Guiana (FRGUI)
Object type
Payload
Rocket body
Debris
Shape & HBR
Box, 0.1 m
Radar Cross Section
0.035 m², Small (<0.1 m²)

Expand to show TLE details & history
Last TLE update: 7 months ago

TLE from 7 months ago
0 MT-CUBE-2
1 53106U 22080B   25051.21822557 -.00000003  00000-0  00000+0 0  9995
2 53106  70.1434 106.3440 0008542  48.0089 312.1297  6.42557744 61200
Epoch: 2025-02-20T05:14Z
TLE epoch observation values (Epoch: 2025-02-20T05:14:14.689Z)
Latitude
-0.00002°
Longitude
-122.61424°
Altitude
5,837.822 km
Speed
5.714 km/s
True Right ascension
07h 05m 22s
True Declination
0° 00' 00"
Sunlit
Object was in daylight at epoch
Visualization orbit readout
Latitude
Unknown
Longitude
Unknown
Altitude
Unknown
Speed
Unknown
Apparent Right ascension
Unknown
Apparent Declination
Unknown
Sunlit
N/A
Visualization observer readout
Local Sidereal Time
18:41:50
Azimuth
Unknown
Elevation
Unknown
Doppler factor
Unknown
Orbital elements
Apogee altitude
5,852.703 km
Perigee altitude
5,831.826 km
Semi-major axis
12,220.401 km
Eccentricity
0.00085
Inclination
70.1434°
RAAN
106.344°
Arg. of periapsis
48.0089°
True anomaly
312.05705°
Mean anomaly
312.1297°
Eccentric anomaly
312.09338°
Mean motion
1.60663 °/min
Orbital period
224.07 mins
BSTAR
0
Loading maneuver chart data...
Computing Atmospheric mass density...
Loading historical data...
Loading historical data...
Loading historical data...
Loading historical data...
Loading historical data...
Loading historical data...
Loading historical data...

Documentation

Showing up to 5 results
|